Regional Weather Roundup
Issued by NWS New Orleans/Baton Rouge, LA

Home | Current Version | Previous Version | Text Only | Print | Product List | Glossary On
Versions: 1 2 3 4 5 6 7 8 9 10 11 12 13 14 15 16 17 18 19 20 21 22 23 24 25 26 27 28 29 30 31 32 33 34 35 36 37 38 39 40 41 42 43 44 45 46 47 48 49 50
920
ASUS44 KLIX 221605
RWRLIX
NEW ORLEANS REGIONAL WEATHER ROUNDUP
NATIONAL WEATHER SERVICE NEW ORLEANS LA
1100 AM CDT WED OCT 22 2014

NOTE: "FAIR" INDICATES FEW OR NO CLOUDS BELOW 12,000 FEET WITH NO
      SIGNIFICANT WEATHER AND/OR OBSTRUCTIONS TO VISIBILITY.
      SKY/WX - SKY CONDITION AND SIGNIFICANT WEATHER.
      TMP - AIR TEMPERATURE.     DP    - DEWPOINT TEMPERATURE.
      RH  - RELATIVE HUMIDITY.   PRES  - PRESSURE.
      HI  - HEAT INDEX.          WCI   - WIND CHILL INDEX.

*  THESE STATIONS ARE NOT NWS OR FAA STATIONS AND ARE NOT UNDER
   NWS QUALITY CONTROL.

LAZ038-040-048-061>063-065>067-069-221700-
SOUTHEAST LOUISIANA

CITY           SKY/WX    TMP DP  RH WIND       PRES   REMARKS
N.O. AUDUBON     N/A     79  56  45 MISG        N/A
N.O. INTL ARPT SUNNY     75  53  46 E14       30.10S
N.O. LAKEFRONT SUNNY     75  57  53 NE13      30.11R
N.O. DOWNTOWN*   N/A     75  52  43 NE5       30.10S
SLIDELL        SUNNY     73  53  49 VRB7      30.10S
BATON ROUGE    SUNNY     74  54  49 NE8       30.12R
BOOTHVILLE     SUNNY     76  64  66 NE9       30.09R
BELLE CHASSE   SUNNY     76  55  48 E14       30.09S
BOGALUSA*        N/A     73  54  49 E6        30.14S
NEW ROADS*       N/A     74  55  51 NE6       30.13S
GONZALES*        N/A     73  55  52 NE5       30.11S
HAMMOND*       SUNNY     75  50  41 E7        30.13S
HOUMA*         SUNNY     75  57  53 NE9       30.09S
PORT FOURCHON* SUNNY     75  64  69 NE15      30.11S

$$

MSZ070-080>082-221700-
SOUTHERN MISSISSIPPI

CITY           SKY/WX    TMP DP  RH WIND       PRES   REMARKS
MCCOMB         SUNNY     71  50  47 E10       30.14S
GULFPORT       SUNNY     74  51  44 E9        30.10S
BILOXI         SUNNY     74  53  47 NE9       30.10S
PASCAGOULA     SUNNY     74  51  44 NE9       30.10S
STENNIS ARPT*  SUNNY     73  50  43 E8        30.11S

$$

COASTAL OBSERVATIONS
LAKE AND NEARSHORE STATIONS

STATION/POSITION TIME  TEMP    WIND        PRES    WAVE
                       AIR SEA DIR/SP/G            HT/PER
                 (UTC) (F)     (DEG/KT/KT) (MB)    (FT/S)
PASCAGOULA       1600   74      70/ 12/ 13 1018.6
WAVELAND YACHT   1600   70      40/  8/  9 1018.6
GRAND ISLE       1600   74 75   70/ 12/ 16 1019.0
SOUTHWEST PASS   1600   78 82   50/ 16/ 19 1018.5
NEW CANAL        1600   71 71   60/ 12/ 14 1019.5
SHELL BEACH      1600   72 68   50/ 14/ 17 1018.9

OFFSHORE STATIONS

STATION/POSITION TIME  TEMP    WIND        PRES    WAVE
                       AIR SEA DIR/SP/G            HT/PER
                 (UTC) (F)     (DEG/KT/KT) (MB)    (FT/S)
64 S DAUPHIN ISL 1503   75 79   60/ 12/ 16 1018.5    3/ 5

$$




USA.gov is the U.S. government's official web portal to all federal, state and local government web resources and services.